カタログに戻る

STARLINK-11545

運用中通信VLEO
NORAD 63016·PAYLOAD·🇺🇸 United States

打ち上げ Feb 15, 2025 から Cape Canaveral Space Force Station

Loading…

次のパス (今後24時間)

TLE

最新Source: CelesTrak SupGP

元期: Sep 14, 2026, 21:03 UTC

1 63016C 25032M   26257.87756944 -.00028555  00000+0 -22190-3 0  2570
2 63016  43.0001 134.8356 0001416 271.5576 307.8468 15.70841015    10

AllMySatでSTARLINK-11545をリアルタイム追跡

Download on the App Store